Regional Weather Roundup
Issued by NWS Goodland, KS

Home | Current Version | Previous Version | Graphics & Text | Print | Product List | Glossary On
Versions: 1 2 3 4 5 6 7 8 9 10 11 12 13 14 15 16 17 18 19 20 21 22 23 24 25 26 27 28 29 30 31 32 33 34 35 36 37 38 39 40 41 42 43 44 45 46 47 48 49 50
000
ASUS43 KGLD 270008
RWRGLD

GOODLAND FORECAST AREA HOURLY WEATHER ROUNDUP
NATIONAL WEATHER SERVICE GOODLAND KS
600 PM MDT TUE JUL 26 2016

...OFFICIAL OBSERVATIONS...

CITY           SKY/WX    TMP DP  RH WIND       PRES   REMARKS
GOODLAND KS    SUNNY     87  64  46 S15       30.01F
HILL CITY KS   MOSUNNY   88  67  49 SE10      29.99S
IMPERIAL NEB   CLOUDY    89  61  38 S14       29.97F
MCCOOK NEB     MOSUNNY   88  62  41 SE14      29.97F
AKRON CO       CLOUDY    80  52  37 SE23G30   30.08F
BURLINGTON CO  SUNNY     86  60  41 S8        30.07R
LIMON CO       NOT AVBL
$$

...UNOFFICIAL OBSERVATIONS...

CITY           SKY/WX    TMP DP  RH WIND       PRES   REMARKS
COLBY KS       SUNNY     88  70  55 SE16      30.02F
LENORA KS        N/A     88  32  13 MISG        N/A
NORTON KS      SUNNY     88  57  35 SE12      29.98F
SHARON SPRINGS   N/A     89  70  53 SE14G21     N/A
KIT CARSON CO    N/A     88  58  35 MISG        N/A
YUMA CO          N/A     79  55  43 S9G16       N/A
$$




USA.gov is the U.S. government's official web portal to all federal, state and local government web resources and services.